Temperature
17 17 18 18 19 19 19 19 18 17 17 17 18 18 18 19 19 19 19 19 19 19 18 18 18 17 17 17 16 16 16 16 16 16 16 17 17 17 17 17 17 17 17
16 17 17 18 18 18 18 18 17 16 16 17 17 18 18 19 19 19 19 19 19 19 18 18 18 17 17 17 16 16 16 16 16 15 15 16 17 17 17 17 17 17 17
14 15 16 16 17 17 17 17 17 16 16 17 17 18 18 18 19 19 18 18 19 19 18 18 18 18 17 17 17 16 16 16 15 15 15 14 14 15 17 17 17 17 17
14 15 15 15 15 15 15 16 16 16 16 17 17 17 18 18 18 18 18 18 18 18 18 18 18 18 18 17 17 16 16 16 15 15 15 14 14 14 14 16 17 16 17
14 15 15 15 15 15 15 15 15 15 16 16 17 17 17 18 18 18 18 18 18 18 18 18 18 18 18 17 17 17 16 16 16 15 15 15 14 14 14 14 16 16 16
15 15 15 15 15 15 15 15 15 15 15 15 16 16 16 16 17 17 17 17 17 17 17 17 17 17 17 17 17 17 16 16 16 15 15 15 14 14 13 13 14 15 16
15 15 15 15 15 15 15 15 15 15 14 14 15 15 15 15 15 15 15 16 16 16 17 17 17 17 17 17 17 17 16 16 16 15 15 15 15 14 14 13 14 14 15
15 15 15 15 15 15 15 15 14 14 14 14 14 14 13 13 13 13 14 14 14 15 15 16 16 16 16 16 16 16 16 16 16 15 15 15 15 14 14 14 13 13 14
15 15 15 15 15 14 14 14 14 14 13 13 13 13 13 13 13 13 12 13 13 13 13 14 14 15 15 15 15 16 16 16 15 15 15 15 15 14 14 14 13 13 13
15 15 15 15 15 14 14 13 13 13 13 12 12 12 12 12 11 11 12 12 12 12 12 13 13 13 14 14 14 15 15 15 15 15 15 15 15 14 14 14 14 13 13
15 15 15 15 14 14 13 13 13 12 12 12 12 12 11 11 11 11 11 11 11 11 11 11 12 12 13 13 13 14 14 14 15 15 14 15 15 14 14 14 14 14 13
15 15 15 14 14 13 13 13 12 12 12 12 11 11 11 11 11 10 10 10 10 10 10 10 11 11 12 12 12 13 13 14 14 14 14 14 14 14 14 14 14 14 14
15 14 14 13 13 13 13 12 12 12 11 11 11 11 11 10 10 10 10 10 10 10 10 10 10 10 11 11 11 12 12 13 13 14 14 14 14 14 14 14 14 14 14
14 13 13 13 13 12 12 12 12 11 11 11 11 11 10 10 10 10 10 10 10 10 10 9 9 10 10 10 10 11 11 12 12 13 13 13 14 14 14 14 14 14 14
13 13 13 12 12 12 12 12 11 11 11 11 11 10 10 10 10 10 9 9 9 9 9 9 9 9 9 9 10 10 11 11 12 12 13 13 13 13 14 14 14 14 13
13 13 12 12 12 12 12 11 11 11 11 11 10 10 10 10 9 9 9 9 9 9 9 9 9 9 9 9 9 9 10 10 11 11 12 13 13 13 14 14 14 14 13
12 12 12 12 12 11 11 11 11 11 11 10 10 10 10 10 9 9 9 8 8 8 8 9 9 9 9 9 9 9 9 9 10 11 11 12 13 13 13 14 14 13 13
12 12 11 11 11 10 10 10 10 10 9 9 9 9 9 9 9 8 8 8 8 8 8 8 8 8 9 9 9 9 9 9 9 10 11 11 12 13 13 13 13 13 13
11 11 10 10 9 9 9 8 8 8 8 8 8 8 8 8 8 8 8 7 7 7 7 8 8 8 8 8 9 9 9 9 9 10 10 11 12 12 12 12 12 12 12
10 9 9 8 8 7 7 7 6 6 6 6 6 6 6 6 6 7 7 7 7 7 7 7 7 8 8 8 8 8 8 9 9 9 10 10 11 12 12 12 12 12 12
9 8 8 7 7 6 6 5 5 5 5 5 5 5 5 5 5 6 6 6 6 6 6 7 7 7 8 8 8 8 8 8 9 9 9 10 10 11 11 12 12 12 12
8 7 6 6 5 5 5 4 4 4 4 4 4 4 4 4 4 5 5 5 6 6 6 6 7 7 7 8 8 8 8 8 8 9 9 10 10 11 11 11 11 11 11
7 6 5 5 5 5 4 4 4 4 4 4 4 4 4 4 4 4 5 5 5 5 6 6 6 7 7 7 8 8 8 8 8 8 9 9 10 10 10 11 11 11 11
6 5 5 5 5 5 5 5 4 4 4 4 4 4 4 4 4 4 4 5 5 5 6 6 6 7 7 7 8 8 8 8 8 8 8 9 9 9 10 10 10 11 11
5 5 5 5 5 5 5 5 5 4 4 4 4 4 4 4 4 4 4 5 5 6 6 6 6 6 7 7 8 8 8 8 8 8 8 8 8 9 9 10 10 10 10
5 5 5 5 5 5 5 5 5 5 4 4 4 4 4 4 4 4 5 5 5 6 6 6 6 6 7 7 7 8 8 8 8 8 8 8 8 8 9 9 10 10 10
Wind_Speed
10 9 9 8 7 7 7 8 7 9 6 4 4 1 2 1 2 4 6 7 7 7 6 5 4 4 3 2 2 1 1 1 1 1 3 4 5 5 5 5 5 6 8
10 10 8 7 7 5 5 6 5 4 4 4 3 2 2 2 3 4 4 6 7 7 7 7 5 5 3 2 1 2 1 1 0 2 0 4 5 4 2 2 2 3 4
10 9 9 8 8 9 9 9 7 5 5 5 3 2 1 2 1 1 3 5 7 7 7 8 7 6 4 3 3 3 4 2 2 2 3 1 2 4 4 2 2 2 3
9 9 10 10 10 9 9 9 7 8 8 7 5 4 2 2 2 2 3 4 6 7 7 9 8 7 5 5 4 4 4 4 2 2 2 3 4 2 4 4 2 3 3
8 9 9 9 9 9 8 7 7 8 9 9 9 7 6 4 4 3 3 2 3 5 7 8 8 8 6 6 6 5 4 4 4 3 3 2 2 4 4 5 4 4 3
6 7 7 7 6 6 6 6 6 7 8 9 9 9 8 7 7 6 5 4 3 3 5 7 8 8 7 7 7 6 6 5 5 4 4 4 3 3 4 4 4 5 4
3 4 4 4 3 3 3 4 5 5 6 6 7 6 7 7 7 7 6 5 4 4 5 4 6 7 8 8 7 7 6 6 6 6 5 5 5 4 4 4 4 4 3
2 3 3 3 2 2 2 1 2 2 3 4 4 4 4 4 4 5 5 6 5 5 6 5 4 6 8 9 8 6 7 6 7 7 6 5 5 5 5 4 3 3 3
3 2 3 4 5 5 4 3 2 2 3 3 3 4 4 4 5 6 5 5 5 6 7 7 6 5 6 8 8 7 8 7 7 7 7 6 5 5 5 5 5 4 3
2 3 4 5 6 6 6 5 4 5 5 6 6 5 6 6 6 5 6 6 6 6 7 7 7 7 6 6 7 7 7 8 8 6 7 7 5 5 5 5 5 6 5
4 6 7 6 6 5 5 5 6 7 7 8 8 8 8 8 7 6 7 7 6 6 7 7 7 7 8 7 6 8 8 9 9 8 8 8 6 5 5 4 4 5 6
7 8 8 6 4 5 6 7 8 9 10 10 9 10 10 9 9 9 9 8 8 7 7 7 7 8 8 7 7 8 8 9 9 9 9 9 7 7 5 4 5 5 6
9 8 6 4 5 7 8 9 10 10 11 10 10 11 11 10 11 11 11 10 9 9 8 7 7 8 8 8 8 8 8 8 9 9 9 9 8 8 6 5 5 5 5
8 7 7 7 9 9 10 10 11 11 11 11 11 11 12 12 12 12 11 11 11 10 10 9 9 9 8 8 8 8 8 8 8 8 9 9 9 9 8 6 6 5 5
8 10 10 10 10 11 11 11 11 11 11 11 11 12 12 12 11 11 11 11 11 12 11 10 10 9 8 8 8 7 8 7 7 7 7 9 11 11 9 7 6 6 5
12 13 13 12 12 12 12 12 12 12 12 12 13 12 11 11 11 11 11 10 11 11 11 11 11 11 10 11 12 9 7 8 8 7 6 7 10 11 11 11 10 9 9
15 15 14 14 14 14 14 14 14 13 12 13 13 12 12 11 11 11 9 10 11 11 11 12 11 12 12 15 15 14 9 8 8 8 7 7 8 9 7 7 6 7 11
15 15 14 14 14 14 14 14 14 13 12 12 12 12 11 11 10 10 9 10 9 9 10 11 11 11 12 15 15 15 9 8 9 8 8 8 8 9 9 7 5 4 5
16 15 14 16 14 14 15 15 15 14 13 13 12 11 10 10 10 10 10 9 8 8 8 8 10 10 11 14 15 13 6 7 8 8 8 8 10 13 13 9 8 6 5
13 12 12 13 14 15 15 16 16 16 16 15 14 13 11 11 10 10 10 9 8 9 9 9 9 10 10 13 15 13 6 7 7 7 7 10 11 15 15 11 11 11 9
13 13 14 14 15 16 16 17 17 17 16 16 15 14 12 11 11 10 9 9 8 8 8 9 9 9 11 12 15 14 7 7 7 6 5 6 13 16 17 13 10 13 12
13 14 14 16 16 16 16 18 19 18 16 15 15 14 12 12 12 9 8 8 8 8 8 8 8 7 8 10 12 15 14 10 7 6 5 6 11 15 16 12 13 17 14
15 15 17 19 18 17 16 19 19 18 17 15 14 13 12 10 10 9 9 8 7 7 7 6 7 7 6 7 13 14 14 14 7 5 6 6 11 13 13 14 19 17 12
15 16 19 20 21 19 18 17 18 17 15 15 13 10 9 9 8 8 7 7 7 7 6 6 6 6 5 5 5 5 7 9 7 5 4 6 10 11 11 14 15 11 10
16 17 18 19 21 20 20 18 16 15 14 12 10 8 7 7 7 6 6 7 7 7 7 7 6 5 6 7 9 8 7 7 6 5 3 4 5 8 9 10 10 9 10
17 18 19 19 20 19 19 17 15 13 12 10 9 6 5 5 5 5 5 6 7 10 12 11 8 6 7 7 8 10 11 11 12 7 5 6 7 9 11 13 10 9 10
Wind_Direction
60 50 51 53 55 61 70 67 38 347 336 336 305 308 280 273 235 213 193 184 180 172 159 155 152 141 143 173 191 187 231 266 225 13 317 298 274 258 252 251 254 258 255
43 41 42 45 44 47 72 81 56 2 324 299 283 271 260 251 240 223 200 190 180 171 165 160 162 157 155 173 185 164 172 252 165 145 353 333 333 332 302 289 267 288 290
45 46 52 51 53 48 39 42 32 22 343 325 324 323 339 345 357 265 220 212 192 177 167 172 167 170 171 190 209 195 173 202 250 180 162 178 270 309 312 302 311 328 320
44 47 52 51 49 48 46 41 27 19 4 5 16 22 10 329 298 277 254 235 208 190 179 179 176 179 181 192 210 191 183 178 216 250 206 194 191 231 304 311 302 313 314
50 52 53 52 49 45 44 34 27 22 14 19 24 25 15 341 322 330 318 278 244 222 205 191 186 186 189 196 203 201 203 192 196 207 215 225 217 208 224 286 309 320 291
59 59 56 55 48 44 46 43 34 23 14 22 27 24 17 1 357 352 343 325 306 282 252 218 201 196 194 199 203 206 210 213 214 215 208 205 211 209 208 251 291 304 301
101 90 79 68 59 49 39 35 37 20 12 17 19 16 9 4 359 346 336 332 326 313 297 262 223 207 201 201 199 202 216 217 219 222 221 218 221 214 210 234 264 279 295
145 132 141 156 173 170 156 97 39 2 352 2 355 351 351 346 332 329 326 323 317 307 313 309 268 231 211 205 201 206 216 215 220 227 223 223 231 221 210 211 231 277 288
154 164 193 205 209 206 203 196 198 263 288 293 297 301 308 309 305 306 307 309 312 318 328 326 317 288 243 221 207 212 217 216 221 227 227 226 231 225 221 212 203 213 249
203 226 234 231 221 208 208 209 214 234 250 257 258 260 261 268 276 287 296 299 301 310 317 320 317 309 287 250 228 223 222 220 226 225 227 230 230 231 226 217 210 207 213
267 265 260 246 229 211 204 210 224 234 245 248 248 250 251 253 257 263 269 275 283 296 303 305 306 304 301 291 261 240 228 225 229 228 225 229 222 223 228 221 216 214 209
289 284 283 275 262 247 241 235 236 238 242 245 248 250 251 251 253 256 260 263 268 274 279 286 294 297 298 299 291 275 255 234 229 228 223 227 223 222 222 220 225 224 212
306 308 312 295 273 259 253 248 244 243 244 243 244 250 253 253 253 254 257 258 259 264 269 272 276 282 287 288 287 282 273 254 239 228 220 220 214 222 222 222 230 232 220
314 317 304 281 269 260 253 250 248 246 246 242 241 243 247 248 248 250 251 252 251 253 257 257 259 264 270 276 280 281 278 268 255 238 224 214 208 214 217 223 228 226 211
313 305 295 282 275 270 264 257 252 248 245 242 241 241 242 243 244 246 248 249 249 250 248 248 251 254 259 264 265 267 281 282 270 252 232 217 210 210 209 215 219 210 200
308 304 297 291 284 278 273 266 260 255 247 242 239 236 235 236 236 239 242 246 248 249 247 244 244 246 253 259 264 264 270 274 266 254 241 224 210 209 212 220 218 208 196
306 303 298 291 288 285 282 279 274 266 255 246 241 235 230 229 230 235 237 238 242 245 244 244 240 241 244 249 256 261 260 262 262 247 228 223 209 194 197 204 208 208 200
302 300 298 297 295 293 294 292 289 282 271 261 254 245 234 230 228 228 232 236 237 236 239 239 236 237 244 245 248 255 254 252 254 244 228 216 200 194 184 173 166 162 164
299 302 304 307 309 309 310 309 304 298 292 285 273 260 248 241 234 229 230 232 234 236 235 233 231 231 242 246 246 248 242 245 251 247 235 215 200 193 178 165 158 144 132
305 311 314 313 313 312 312 309 304 299 293 289 282 272 261 253 247 240 235 232 230 235 237 237 230 226 234 243 244 240 223 236 246 244 234 219 204 186 177 169 164 156 147
315 316 316 316 314 314 313 308 304 300 297 293 287 277 264 254 249 245 240 235 234 235 236 237 235 230 231 240 241 233 211 221 233 233 224 214 203 186 181 175 169 159 147
320 321 321 319 317 316 314 310 306 302 299 294 288 282 272 265 265 249 240 233 227 229 234 235 240 239 234 232 237 231 219 212 216 225 217 210 196 187 180 173 156 147 140
323 324 324 322 321 319 315 310 307 304 301 296 289 281 273 265 260 253 246 239 227 226 229 224 233 243 237 235 235 229 219 212 208 217 212 206 191 181 178 168 154 151 146
327 330 329 327 325 323 319 311 309 308 303 299 295 287 277 270 261 253 243 235 228 222 221 220 227 234 236 235 222 206 203 202 202 208 201 189 182 181 170 162 159 156 152
331 331 329 326 324 324 322 319 317 315 312 308 301 293 284 276 269 257 243 232 225 213 209 213 212 211 226 227 203 183 185 187 185 170 166 161 170 180 168 162 159 148 143
332 330 329 327 325 325 324 324 322 319 317 314 307 297 289 284 277 272 274 254 239 231 222 219 211 214 217 210 199 195 186 176 164 160 170 174 178 179 170 163 156 148 146
Height
1496 1495 1495 1494 1494 1492 1488 1484 1485 1482 1481 1486 1490 1493 1496 1498 1500 1501 1501 1501 1502 1502 1502 1501 1501 1500 1499 1499 1498 1497 1497 1496 1495 1494 1493 1493 1493 1493 1494 1495 1496 1497 1498
1499 1498 1496 1495 1492 1491 1487 1485 1486 1482 1483 1488 1490 1493 1496 1497 1499 1500 1499 1500 1500 1500 1500 1499 1498 1497 1496 1496 1495 1493 1493 1493 1491 1490 1489 1488 1489 1489 1490 1491 1492 1493 1493
1504 1501 1498 1496 1493 1491 1489 1488 1488 1486 1488 1491 1491 1493 1496 1497 1497 1498 1497 1497 1498 1497 1497 1497 1495 1494 1494 1493 1492 1491 1490 1489 1489 1487 1486 1486 1486 1485 1486 1487 1488 1489 1489
1507 1503 1499 1496 1494 1493 1492 1492 1492 1491 1492 1491 1491 1493 1494 1495 1495 1495 1495 1495 1494 1494 1494 1493 1492 1492 1491 1490 1489 1488 1487 1486 1485 1485 1484 1484 1484 1484 1482 1482 1483 1484 1484
1508 1505 1502 1500 1499 1498 1497 1497 1496 1495 1494 1492 1492 1492 1492 1493 1493 1492 1491 1491 1490 1490 1491 1490 1489 1489 1488 1487 1487 1486 1485 1483 1482 1481 1480 1480 1480 1481 1480 1477 1477 1478 1479
1510 1507 1505 1504 1503 1502 1501 1499 1498 1497 1495 1493 1491 1491 1489 1489 1489 1488 1486 1486 1485 1485 1485 1485 1485 1484 1484 1484 1483 1483 1482 1480 1479 1478 1477 1477 1476 1477 1477 1475 1474 1473 1474
1511 1509 1507 1506 1506 1504 1502 1500 1498 1497 1495 1493 1491 1489 1488 1486 1484 1483 1481 1480 1479 1479 1479 1479 1479 1479 1479 1479 1479 1479 1478 1477 1475 1474 1473 1473 1472 1473 1473 1472 1471 1470 1470
1511 1510 1508 1507 1506 1505 1503 1500 1498 1495 1493 1491 1489 1488 1486 1483 1481 1479 1477 1475 1473 1472 1472 1471 1471 1472 1473 1473 1474 1474 1474 1473 1471 1471 1470 1469 1468 1468 1468 1468 1468 1467 1467
1510 1509 1508 1506 1505 1502 1500 1498 1496 1493 1491 1488 1486 1485 1483 1480 1477 1475 1473 1471 1469 1467 1466 1465 1464 1465 1466 1467 1468 1468 1469 1468 1467 1466 1465 1464 1464 1464 1464 1464 1464 1465 1464
1509 1507 1505 1503 1500 1498 1496 1494 1492 1491 1488 1485 1483 1480 1478 1476 1473 1471 1468 1466 1464 1462 1460 1459 1458 1458 1459 1460 1461 1462 1462 1462 1462 1461 1461 1460 1459 1459 1459 1459 1460 1460 1461
1507 1505 1501 1498 1495 1493 1491 1490 1488 1486 1484 1481 1478 1475 1472 1470 1468 1466 1463 1461 1458 1456 1454 1453 1452 1452 1452 1452 1453 1454 1455 1456 1456 1456 1455 1455 1454 1454 1454 1454 1454 1455 1455
1505 1501 1497 1494 1491 1489 1487 1485 1483 1480 1478 1475 1471 1468 1466 1463 1461 1459 1457 1455 1452 1451 1449 1447 1446 1445 1445 1445 1445 1446 1448 1449 1449 1449 1449 1449 1449 1449 1449 1449 1449 1449 1450
1501 1497 1494 1491 1488 1485 1482 1478 1475 1472 1469 1466 1463 1461 1458 1456 1454 1452 1450 1448 1446 1445 1443 1442 1440 1439 1438 1438 1438 1439 1439 1440 1442 1443 1443 1443 1443 1443 1443 1443 1443 1444 1444
1497 1493 1489 1486 1482 1478 1474 1470 1467 1463 1460 1457 1454 1452 1450 1448 1446 1444 1442 1441 1439 1438 1437 1436 1435 1434 1432 1432 1431 1432 1432 1432 1434 1435 1436 1437 1437 1438 1438 1437 1437 1438 1438
1492 1487 1483 1478 1474 1469 1465 1461 1457 1453 1450 1447 1444 1442 1440 1439 1437 1435 1434 1432 1431 1430 1429 1429 1428 1428 1427 1426 1425 1425 1425 1425 1426 1427 1428 1430 1431 1432 1432 1432 1432 1432 1433
1485 1480 1475 1470 1465 1460 1455 1450 1446 1442 1439 1436 1433 1431 1430 1428 1427 1426 1424 1423 1422 1421 1421 1421 1421 1420 1420 1420 1419 1418 1418 1418 1419 1419 1421 1423 1424 1426 1426 1426 1426 1427 1428
1480 1473 1468 1462 1456 1450 1444 1439 1435 1431 1427 1424 1421 1419 1418 1417 1416 1415 1415 1414 1413 1413 1412 1412 1413 1412 1413 1413 1412 1412 1412 1411 1412 1412 1414 1415 1418 1420 1421 1421 1421 1422 1423
1473 1466 1460 1453 1447 1441 1435 1429 1424 1419 1415 1411 1409 1407 1405 1404 1404 1404 1404 1404 1404 1403 1403 1403 1404 1404 1404 1405 1405 1405 1405 1405 1405 1406 1407 1409 1411 1414 1415 1416 1417 1418 1419
1468 1461 1454 1447 1439 1433 1426 1419 1413 1408 1403 1399 1396 1394 1393 1391 1391 1391 1392 1392 1393 1393 1394 1394 1395 1395 1396 1397 1398 1398 1398 1398 1399 1399 1400 1402 1405 1408 1410 1412 1413 1415 1417
1462 1455 1447 1440 1432 1425 1418 1410 1403 1397 1392 1387 1384 1381 1380 1379 1378 1379 1380 1381 1382 1383 1384 1385 1386 1387 1388 1389 1390 1391 1391 1392 1392 1393 1394 1396 1399 1402 1405 1408 1410 1412 1415
1456 1448 1440 1432 1424 1416 1408 1400 1393 1387 1381 1376 1372 1369 1367 1366 1366 1367 1368 1370 1371 1373 1374 1375 1376 1378 1379 1381 1382 1384 1385 1386 1386 1387 1388 1390 1393 1397 1401 1404 1408 1411 1414
1449 1441 1433 1424 1416 1409 1400 1392 1384 1377 1371 1365 1360 1357 1355 1354 1354 1356 1357 1359 1361 1363 1365 1367 1368 1370 1372 1373 1374 1376 1378 1380 1381 1382 1383 1385 1388 1392 1397 1401 1406 1410 1413
1443 1435 1426 1417 1409 1401 1394 1384 1376 1368 1361 1356 1351 1347 1345 1345 1345 1346 1348 1350 1352 1355 1357 1359 1360 1362 1364 1366 1368 1370 1372 1374 1375 1377 1378 1380 1383 1388 1393 1399 1404 1408 1412
1438 1429 1421 1411 1403 1395 1387 1379 1370 1362 1354 1348 1344 1341 1338 1338 1338 1339 1340 1342 1345 1347 1350 1352 1354 1356 1358 1360 1361 1363 1366 1368 1370 1372 1373 1376 1379 1383 1389 1396 1402 1407 1411
1434 1425 1417 1408 1399 1390 1382 1374 1365 1357 1350 1344 1340 1337 1335 1333 1333 1334 1335 1337 1339 1342 1344 1347 1349 1351 1353 1355 1357 1359 1361 1363 1365 1367 1369 1372 1375 1379 1385 1392 1399 1405 1411
1430 1421 1413 1405 1396 1388 1379 1371 1363 1355 1348 1342 1337 1334 1332 1331 1331 1331 1332 1334 1336 1338 1340 1343 1345 1348 1350 1352 1354 1355 1357 1359 1361 1363 1365 1368 1372 1376 1382 1388 1396 1404 1410